Weather History for South Pass, WY

Change the Weather History Date:

Wednesday, August 21, 2013

  Actual Average (KLND) Record (KLND)
Temperature  
Mean Temperature 63 °F 69 °F  
Max Temperature 71 °F 84 °F 98 °F (1960)
Min Temperature 55 °F 54 °F 39 °F (1966)
Degree Days  
Heating Degree Days 2 1  
Month to date heating degree days 9  
Since 1 June heating degree days 151  
Since 1 July heating degree days 25  
Cooling Degree Days 0 5  
Month to date cooling degree days 131  
Year to date cooling degree days 408  
Since 1 June cooling degree days 403  
Growing Degree Days 13 (Base 50)    
Moisture  
Dew Point 42 °F    
Average Humidity 54    
Maximum Humidity 77    
Minimum Humidity 23    
Precipitation  
Precipitation 0.18 in 0.02 in 0.29 in (1891)
Month to date precipitation 0.45  
Year to date precipitation 8.72  
Snow  
Snow 0.00 in 0.00 in - ()
Month to date snowfall 0.0  
Since 1 June snowfall 0.1  
Since 1 July snowfall 0.0  
Snow Depth -    
Sea Level Pressure  
Sea Level Pressure 30.33 in    
Wind  
Wind Speed 9 mph (NW)    
Max Wind Speed 18 mph    
Max Gust Speed 28 mph    
Visibility 10 miles    
Events Rain , Thunderstorm    
T = Trace of Precipitation, MM = Missing Value Source: NWS Daily Summary

Daily Weather History Graph

Daily Weather History Graph

Search for Another Location

Airport:

Trip Planner

Search our weather history database for the weather conditions in past years. The results will help you decide how hot, cold, wet, or windy it might be!

Date:

Astronomy

Aug. 21, 2013 Rise Set
Actual Time 6:28 AM MDT 8:06 PM MDT
Civil Twilight 5:58 AM MDT 8:36 PM MDT
Nautical Twilight 5:22 AM MDT 9:12 PM MDT
Astronomical Twilight 4:44 AM MDT 9:50 PM MDT
Moon 8:14 PM MDT (8/21) 7:14 AM MDT (8/21)
Length of Visible Light 14h 37m
Length of Day
13h 38m
Full, 99% of the Moon is Illuminated
Aug 21
Full
Aug 28
Last Quarter
Sep 5
New
Sep 12
First Quarter
Sep 19
Full

Hourly Weather History & Observations

Time (MDT) Temp. Dew Point Humidity Pressure Visibility Wind Dir Wind Speed Gust Speed Precip Events Conditions
12:15 AM 60.8 °F 42.8 °F 52% 30.30 in 10.0 mi WSW 9.2 mph - N/A   Drizzle
12:35 AM 60.8 °F 41.0 °F 48% 30.31 in 10.0 mi Calm Calm - N/A   Overcast
12:55 AM 62.6 °F 41.0 °F 45% 30.31 in 10.0 mi West 3.5 mph - N/A   Overcast
1:15 AM 60.8 °F 42.8 °F 52% 30.31 in 10.0 mi WSW 6.9 mph - N/A   Drizzle
1:35 AM 60.8 °F 41.0 °F 48% 30.31 in 10.0 mi SSW 4.6 mph - N/A   Light Drizzle
1:55 AM 60.8 °F 41.0 °F 48% 30.30 in 10.0 mi South 11.5 mph - N/A   Overcast
2:15 AM 57.2 °F 44.6 °F 63% 30.30 in 10.0 mi South 10.4 mph - N/A   Overcast
2:35 AM 55.4 °F 44.6 °F 67% 30.31 in 10.0 mi South 9.2 mph - N/A   Overcast
2:55 AM 55.4 °F 44.6 °F 67% 30.30 in 10.0 mi South 9.2 mph 17.3 mph N/A   Overcast
3:15 AM 55.4 °F 44.6 °F 67% 30.30 in 10.0 mi SW 6.9 mph - N/A   Overcast
3:35 AM 55.4 °F 44.6 °F 67% 30.30 in 10.0 mi SW 8.1 mph - N/A   Overcast
3:55 AM 55.4 °F 44.6 °F 67% 30.29 in 10.0 mi WSW 11.5 mph - N/A   Overcast
4:15 AM 55.4 °F 44.6 °F 67% 30.29 in 10.0 mi WSW 11.5 mph - N/A   Overcast
4:35 AM 55.4 °F 44.6 °F 67% 30.29 in 10.0 mi WSW 12.7 mph - N/A   Overcast
4:55 AM 55.4 °F 42.8 °F 63% 30.29 in 10.0 mi WSW 11.5 mph - N/A   Overcast
5:15 AM 57.2 °F 42.8 °F 59% 30.29 in 10.0 mi WSW 12.7 mph - N/A   Overcast
5:35 AM 57.2 °F 42.8 °F 59% 30.28 in 10.0 mi WSW 11.5 mph - N/A   Overcast
5:55 AM 59.0 °F 41.0 °F 51% 30.28 in 10.0 mi WSW 11.5 mph - N/A   Overcast
6:15 AM 59.0 °F 41.0 °F 51% 30.29 in 10.0 mi WSW 9.2 mph - N/A   Overcast
6:35 AM 59.0 °F 41.0 °F 51% 30.29 in 10.0 mi WSW 10.4 mph 17.3 mph N/A   Overcast
6:55 AM 59.0 °F 41.0 °F 51% 30.29 in 10.0 mi West 11.5 mph - N/A   Overcast
7:15 AM 59.0 °F 41.0 °F 51% 30.29 in 10.0 mi West 8.1 mph - N/A   Overcast
7:35 AM 59.0 °F 41.0 °F 51% 30.30 in 10.0 mi West 5.8 mph - N/A   Overcast
7:55 AM 60.8 °F 41.0 °F 48% 30.30 in 10.0 mi West 4.6 mph - N/A   Overcast
8:15 AM 60.8 °F 39.2 °F 45% 30.30 in 10.0 mi West 5.8 mph - N/A   Overcast
9:35 AM 68.0 °F 33.8 °F 28% 30.32 in 10.0 mi North 18.4 mph 26.5 mph 0.06 in   Mostly Cloudy
9:55 AM 66.2 °F 32.0 °F 28% 30.32 in 10.0 mi NNW 15.0 mph 27.6 mph 0.06 in   Overcast
10:15 AM 66.2 °F 33.8 °F 30% 30.33 in 10.0 mi North 11.5 mph - N/A   Overcast
10:35 AM 68.0 °F 33.8 °F 28% 30.34 in 10.0 mi North 10.4 mph - N/A   Overcast
10:55 AM 69.8 °F 33.8 °F 27% 30.34 in 10.0 mi NNE 8.1 mph - N/A   Overcast
11:15 AM 69.8 °F 32.0 °F 25% 30.34 in 10.0 mi NE 8.1 mph - N/A   Scattered Clouds
11:35 AM 69.8 °F 32.0 °F 25% 30.34 in 10.0 mi North 8.1 mph - N/A   Clear
11:55 AM 71.6 °F 32.0 °F 23% 30.34 in 10.0 mi NNE 8.1 mph - N/A   Scattered Clouds
12:15 PM 71.6 °F 32.0 °F 23% 30.34 in 10.0 mi North 6.9 mph - N/A   Scattered Clouds
12:35 PM 69.8 °F 32.0 °F 25% 30.34 in 10.0 mi NE 6.9 mph - N/A   Overcast
12:55 PM 69.8 °F 33.8 °F 27% 30.34 in 10.0 mi NNE 4.6 mph - N/A   Overcast
1:15 PM 71.6 °F 33.8 °F 25% 30.34 in 10.0 mi NNE 10.4 mph 16.1 mph N/A   Overcast
1:35 PM 68.0 °F 35.6 °F 30% 30.34 in 10.0 mi NE 8.1 mph - N/A Rain Light Rain
1:55 PM 68.0 °F 37.4 °F 33% 30.34 in 10.0 mi North 13.8 mph - N/A   Overcast
2:15 PM 62.6 °F 44.6 °F 52% 30.34 in 10.0 mi NNW 18.4 mph 24.2 mph N/A Rain Light Rain
2:35 PM 59.0 °F 44.6 °F 59% 30.36 in 10.0 mi WNW 12.7 mph 20.7 mph N/A Rain , Thunderstorm Light Thunderstorms and Rain
2:55 PM 55.4 °F 48.2 °F 77% 30.35 in 7.0 mi NNW 11.5 mph - 0.02 in Rain Rain
3:15 PM 59.0 °F 48.2 °F 67% 30.34 in 10.0 mi NNW 11.5 mph - N/A Rain Light Rain
3:35 PM 59.0 °F 48.2 °F 67% 30.33 in 10.0 mi NNW 11.5 mph - N/A Rain Light Rain
3:55 PM 57.2 °F 50.0 °F 77% 30.34 in 5.0 mi NNW 12.7 mph - 0.04 in Rain Light Rain
4:15 PM 59.0 °F 46.4 °F 63% 30.34 in 10.0 mi WNW 10.4 mph 18.4 mph N/A Rain Light Rain
4:35 PM 55.4 °F 48.2 °F 77% 30.34 in 10.0 mi NW 13.8 mph - 0.03 in Rain Light Rain
4:55 PM 59.0 °F 46.4 °F 63% 30.33 in 10.0 mi NW 6.9 mph - 0.03 in Rain , Thunderstorm Light Thunderstorms and Rain
5:15 PM 55.4 °F 46.4 °F 72% 30.34 in 10.0 mi West 12.7 mph 18.4 mph N/A Rain Rain
5:35 PM 55.4 °F 46.4 °F 72% 30.35 in 10.0 mi WNW 6.9 mph - N/A Rain Rain
5:55 PM 55.4 °F 46.4 °F 72% 30.33 in 7.0 mi SE 8.1 mph - 0.03 in Rain Light Rain
6:15 PM 59.0 °F 48.2 °F 67% 30.32 in 10.0 mi Calm Calm - N/A   Mostly Cloudy
6:35 PM 59.0 °F 50.0 °F 72% 30.32 in 10.0 mi NW 4.6 mph - N/A   Scattered Clouds
6:55 PM 60.8 °F 50.0 °F 68% 30.32 in 10.0 mi NW 4.6 mph - N/A   Clear
7:15 PM 60.8 °F 50.0 °F 68% 30.32 in 10.0 mi NNW 6.9 mph - N/A   Scattered Clouds
7:35 PM 60.8 °F 48.2 °F 63% 30.32 in 10.0 mi North 6.9 mph - N/A   Clear
7:55 PM 60.8 °F 48.2 °F 63% 30.33 in 10.0 mi NNW 8.1 mph - N/A   Clear
8:15 PM 59.0 °F 46.4 °F 63% 30.33 in 10.0 mi North 9.2 mph - N/A   Clear
8:35 PM 57.2 °F 44.6 °F 63% 30.34 in 10.0 mi NNW 10.4 mph - N/A   Clear
8:55 PM 57.2 °F 44.6 °F 63% 30.35 in 10.0 mi NNW 10.4 mph - N/A   Mostly Cloudy
9:15 PM 57.2 °F 44.6 °F 63% 30.35 in 10.0 mi NNW 8.1 mph - N/A   Mostly Cloudy
9:35 PM 59.0 °F 42.8 °F 55% 30.36 in 10.0 mi NNW 9.2 mph - N/A   Mostly Cloudy
9:55 PM 59.0 °F 42.8 °F 55% 30.37 in 10.0 mi NNW 8.1 mph - N/A   Overcast
10:15 PM 59.0 °F 42.8 °F 55% 30.36 in 10.0 mi NNE 6.9 mph - N/A   Light Drizzle
10:35 PM 57.2 °F 42.8 °F 59% 30.37 in 10.0 mi NNW 8.1 mph - N/A   Scattered Clouds
10:55 PM 59.0 °F 42.8 °F 55% 30.36 in 10.0 mi North 10.4 mph - N/A   Mostly Cloudy
11:15 PM 57.2 °F 42.8 °F 59% 30.37 in 10.0 mi NNW 10.4 mph - N/A   Overcast
11:35 PM 59.0 °F 42.8 °F 55% 30.38 in 10.0 mi North 6.9 mph - N/A   Overcast
11:55 PM 59.0 °F 42.8 °F 55% 30.38 in 10.0 mi North 9.2 mph - N/A   Overcast